IW9GDC-13 Weather Reports


Display with metric or nautical units.
time (UTC)temp
F
wind
direction
speed
MPH
gust
MPH
rain 1hr
in
rain 24hr
in
rain mn
in
humidity
%
barometer
mb
20260903235515 81 180 1.0 2.0 0.00 0.00 0.00 66 1016.9
20260903235016 81 248 1.0 2.0 0.00 0.00 0.00 66 1017.0
20260903234515 82 0.0 2.0 0.00 0.00 0.00 66 1017.0
20260903234016 82 0.0 2.0 0.00 0.00 0.00 66 1016.9
20260903233515 82 203 2.0 6.0 0.00 0.00 0.00 65 1017.1
20260903233015 82 158 1.0 4.0 0.00 0.00 0.00 66 1017.2
20260903232515 82 135 3.0 7.0 0.00 0.00 0.00 65 1017.2
20260903232015 82 270 3.0 9.0 0.00 0.00 0.00 64 1017.2
20260903231515 82 270 3.0 6.0 0.00 0.00 0.00 67 1017.2
20260903231017 82 315 5.0 11.0 0.00 0.00 0.00 63 1017.1
20260903230517 82 45 4.0 7.0 0.00 0.00 0.00 64 1017.2
20260903230017 82 45 3.0 6.0 0.00 0.00 0.00 65 1017.2
20260903225517 82 23 6.0 10.0 0.00 0.00 0.00 66 1017.1
20260903225017 82 0 3.0 11.0 0.00 0.00 0.00 66 1017.0
20260903224517 82 180 2.0 8.0 0.00 0.00 0.00 65 1017.0
20260903224037 82 0.0 2.0 0.00 0.00 0.00 67 1017.0
20260903223517 82 225 2.0 9.0 0.00 0.00 0.00 67 1017.0
20260903223017 82 315 5.0 9.0 0.00 0.00 0.00 68 1016.9
20260903222537 81 0 5.0 10.0 0.00 0.00 0.00 70 1017.0
20260903222017 82 248 2.0 6.0 0.00 0.00 0.00 70 1017.1
20260903221517 82 293 3.0 11.0 0.00 0.00 0.00 70 1017.1
20260903221017 82 68 2.0 7.0 0.00 0.00 0.00 68 1017.1
20260903220637 82 45 5.0 11.0 0.00 0.00 0.00 70 1017.1
20260903220017 82 203 2.0 9.0 0.00 0.00 0.00 70 1017.0
20260903215517 82 248 1.0 2.0 0.00 0.00 0.00 70 1017.0
20260903215037 82 158 2.0 5.0 0.00 0.00 0.00 70 1017.1
20260903214537 81 270 2.0 6.0 0.00 0.00 0.00 70 1017.1
20260903214037 81 315 3.0 10.0 0.00 0.00 0.00 71 1017.2
20260903213517 81 293 2.0 8.0 0.00 0.00 0.00 71 1017.2
20260903213017 81 338 1.0 5.0 0.00 0.00 0.00 72 1017.3
20260903212537 81 0 1.0 3.0 0.00 0.00 0.00 72 1017.3
20260903212016 81 338 3.0 8.0 0.00 0.00 0.00 72 1017.4
20260903211517 81 293 2.0 6.0 0.00 0.00 0.00 72 1017.4
20260903211017 81 338 5.0 9.0 0.00 0.00 0.00 72 1017.5
20260903210517 81 315 5.0 10.0 0.00 0.00 0.00 72 1017.4
20260903210017 81 293 3.0 6.0 0.00 0.00 0.00 72 1017.4
20260903205517 81 315 3.0 8.0 0.00 0.00 0.00 72 1017.3
20260903205017 82 338 4.0 8.0 0.00 0.00 0.00 72 1017.3
20260903204516 82 293 3.0 10.0 0.00 0.00 0.00 72 1017.4
20260903204016 82 293 3.0 7.0 0.00 0.00 0.00 72 1017.4
20260903165057 84 90 4.0 9.0 0.00 0.00 0.00 66 1015.4
20260903163016 84 338 6.0 13.0 0.00 0.00 0.00 65 1015.4
20260903162516 85 270 4.0 9.0 0.00 0.00 0.00 65 1015.2
20260903162036 85 113 3.0 11.0 0.00 0.00 0.00 65 1015.3
20260903161516 85 293 3.0 8.0 0.00 0.00 0.00 64 1015.1
20260903161016 86 270 4.0 14.0 0.00 0.00 0.00 63 1015.2
20260903160516 86 293 4.0 10.0 0.00 0.00 0.00 63 1015.2
20260903160016 86 293 4.0 9.0 0.00 0.00 0.00 62 1015.3
20260903155516 86 135 5.0 13.0 0.00 0.00 0.00 62 1015.6
20260903155016 86 0 9.0 17.0 0.00 0.00 0.00 62 1015.7
20260903154516 87 315 4.0 9.0 0.00 0.00 0.00 61 1015.5
20260903154016 87 338 5.0 14.0 0.00 0.00 0.00 60 1015.4
20260903153516 87 90 6.0 15.0 0.00 0.00 0.00 60 1015.4
20260903153016 87 315 4.0 11.0 0.00 0.00 0.00 60 1015.4
20260903152516 87 0 5.0 12.0 0.00 0.00 0.00 60 1015.3
20260903152016 87 0 7.0 14.0 0.00 0.00 0.00 60 1015.4
20260903151516 88 315 5.0 13.0 0.00 0.00 0.00 59 1015.4
20260903151016 87 293 4.0 9.0 0.00 0.00 0.00 60 1015.4
20260903150516 87 315 6.0 13.0 0.00 0.00 0.00 60 1015.4
20260903150016 87 315 7.0 15.0 0.00 0.00 0.00 60 1015.4
20260903145516 87 315 6.0 15.0 0.00 0.00 0.00 60 1015.4
20260903145016 88 270 6.0 17.0 0.00 0.00 0.00 59 1015.4
20260903144536 88 315 5.0 15.0 0.00 0.00 0.00 60 1015.5
20260903144015 88 293 4.0 11.0 0.00 0.00 0.00 59 1015.6
20260903143515 88 0 6.0 11.0 0.00 0.00 0.00 58 1015.6
20260903143016 88 23 6.0 14.0 0.00 0.00 0.00 59 1015.6
20260903142516 88 293 4.0 10.0 0.00 0.00 0.00 59 1015.6
20260903142016 88 315 6.0 14.0 0.00 0.00 0.00 58 1015.6
20260903141515 88 270 5.0 14.0 0.00 0.00 0.00 58 1015.5
20260903141036 88 293 4.0 9.0 0.00 0.00 0.00 59 1015.6
20260903140616 88 0 4.0 12.0 0.00 0.00 0.00 57 1015.8
20260903140016 88 68 5.0 12.0 0.00 0.00 0.00 57 1015.9
20260903135515 88 315 5.0 11.0 0.00 0.00 0.00 57 1016.0
20260903135015 88 338 5.0 12.0 0.00 0.00 0.00 57 1015.9
20260903134516 88 270 7.0 18.0 0.00 0.00 0.00 54 1015.9
20260903134016 88 315 6.0 14.0 0.00 0.00 0.00 55 1015.9
20260903133515 88 315 7.0 19.0 0.00 0.00 0.00 56 1015.9
20260903133015 89 338 5.0 13.0 0.00 0.00 0.00 53 1016.0
20260903132535 89 0 6.0 13.0 0.00 0.00 0.00 55 1016.0
20260903132035 90 270 5.0 11.0 0.00 0.00 0.00 54 1015.9
20260903131515 89 315 4.0 13.0 0.00 0.00 0.00 54 1015.8
20260903131015 89 0 8.0 17.0 0.00 0.00 0.00 53 1015.8
20260903130516 90 293 7.0 12.0 0.00 0.00 0.00 53 1015.8
20260903130015 89 293 7.0 17.0 0.00 0.00 0.00 53 1015.8
20260903125515 90 270 5.0 15.0 0.00 0.00 0.00 52 1015.8
20260903125016 90 293 5.0 16.0 0.00 0.00 0.00 50 1015.8
20260903124515 90 293 6.0 13.0 0.00 0.00 0.00 51 1015.9
20260903124015 90 315 5.0 14.0 0.00 0.00 0.00 52 1015.9
20260903123516 90 315 6.0 15.0 0.00 0.00 0.00 51 1016.0
20260903123016 90 293 5.0 14.0 0.00 0.00 0.00 50 1015.9
20260903122515 90 338 6.0 13.0 0.00 0.00 0.00 49 1015.9
20260903122035 90 270 6.0 17.0 0.00 0.00 0.00 50 1015.8
20260903121515 89 338 10.0 20.0 0.00 0.00 0.00 47 1015.9
20260903121019 90 338 9.0 18.0 0.00 0.00 0.00 47 1015.8
20260903120516 90 315 5.0 14.0 0.00 0.00 0.00 49 1015.9
20260903120017 90 315 11.0 22.0 0.00 0.00 0.00 48 1015.9
20260903115517 90 0 5.0 15.0 0.00 0.00 0.00 51 1015.9
20260903115017 90 293 5.0 13.0 0.00 0.00 0.00 51 1016.0
20260903114517 90 338 5.0 14.0 0.00 0.00 0.00 50 1016.0
20260903114017 90 293 6.0 11.0 0.00 0.00 0.00 49 1016.1
20260903113537 90 293 6.0 12.0 0.00 0.00 0.00 48 1016.1
20260903113017 90 0 5.0 11.0 0.00 0.00 0.00 48 1016.1
20260903112517 90 315 6.0 12.0 0.00 0.00 0.00 48 1016.1
20260903112017 90 315 5.0 13.0 0.00 0.00 0.00 48 1016.2
20260903111517 90 248 4.0 10.0 0.00 0.00 0.00 48 1016.2
20260903111017 89 338 6.0 16.0 0.00 0.00 0.00 48 1016.1
20260903110517 89 315 7.0 15.0 0.00 0.00 0.00 49 1016.2
20260903110017 89 0 4.0 12.0 0.00 0.00 0.00 51 1016.3
20260903105517 89 338 5.0 17.0 0.00 0.00 0.00 51 1016.3
20260903105017 89 315 7.0 16.0 0.00 0.00 0.00 52 1016.3
20260903104517 89 23 9.0 15.0 0.00 0.00 0.00 52 1016.4
20260903104037 90 315 5.0 10.0 0.00 0.00 0.00 52 1016.3
20260903103517 89 293 5.0 12.0 0.00 0.00 0.00 50 1016.4
20260903103017 89 293 6.0 13.0 0.00 0.00 0.00 50 1016.5
20260903102517 90 270 5.0 12.0 0.00 0.00 0.00 51 1016.4
20260903102037 90 23 3.0 10.0 0.00 0.00 0.00 49 1016.5
20260903101517 89 315 7.0 16.0 0.00 0.00 0.00 50 1016.6
20260903101037 90 23 6.0 12.0 0.00 0.00 0.00 51 1016.6
20260903100519 89 23 6.0 11.0 0.00 0.00 0.00 51 1016.6
20260903100017 89 293 5.0 11.0 0.00 0.00 0.00 51 1016.8
20260903095517 89 293 6.0 13.0 0.00 0.00 0.00 51 1016.8
20260903095017 89 315 9.0 16.0 0.00 0.00 0.00 51 1016.8
20260903094517 89 293 7.0 12.0 0.00 0.00 0.00 50 1016.9
20260903094017 89 248 6.0 12.0 0.00 0.00 0.00 51 1016.9
20260903093517 88 270 7.0 14.0 0.00 0.00 0.00 51 1016.9
20260903093037 88 315 7.0 13.0 0.00 0.00 0.00 53 1017.0
20260903092517 88 0 5.0 11.0 0.00 0.00 0.00 53 1017.1
20260903092017 88 315 6.0 11.0 0.00 0.00 0.00 53 1017.2
20260903091517 87 293 7.0 12.0 0.00 0.00 0.00 53 1017.1
20260903091017 87 270 8.0 14.0 0.00 0.00 0.00 54 1017.1
20260903090517 87 293 9.0 15.0 0.00 0.00 0.00 55 1017.1
20260903090017 86 293 8.0 16.0 0.00 0.00 0.00 55 1017.1
20260903085518 87 315 8.0 17.0 0.00 0.00 0.00 55 1017.3
20260903085037 87 315 9.0 16.0 0.00 0.00 0.00 54 1017.2
20260903084537 86 293 8.0 17.0 0.00 0.00 0.00 56 1017.2
20260903084017 86 270 10.0 17.0 0.00 0.00 0.00 59 1017.2
20260903083537 86 293 9.0 16.0 0.00 0.00 0.00 59 1017.4
20260903083037 86 315 8.0 15.0 0.00 0.00 0.00 59 1017.4
20260903082517 86 270 6.0 12.0 0.00 0.00 0.00 59 1017.3
20260903082016 86 315 9.0 18.0 0.00 0.00 0.00 59 1017.2
20260903081517 86 293 9.0 17.0 0.00 0.00 0.00 59 1017.2
20260903081016 86 315 5.0 10.0 0.00 0.00 0.00 59 1017.2
20260903080517 86 293 8.0 16.0 0.00 0.00 0.00 59 1017.2
20260903080016 86 270 5.0 12.0 0.00 0.00 0.00 59 1017.1
20260903075517 85 293 5.0 12.0 0.00 0.00 0.00 59 1017.1
20260903075017 85 293 8.0 16.0 0.00 0.00 0.00 60 1017.0
20260903074517 85 315 9.0 15.0 0.00 0.00 0.00 61 1017.0
20260903074017 85 270 9.0 15.0 0.00 0.00 0.00 61 1017.1
20260903073537 85 315 7.0 13.0 0.00 0.00 0.00 61 1017.1
20260903073016 85 293 6.0 13.0 0.00 0.00 0.00 61 1017.0
20260903072517 85 315 8.0 19.0 0.00 0.00 0.00 61 1017.0
20260903072016 84 293 5.0 11.0 0.00 0.00 0.00 61 1017.1
20260903071516 84 270 7.0 12.0 0.00 0.00 0.00 63 1017.0
20260903071036 84 270 6.0 14.0 0.00 0.00 0.00 63 1017.1
20260903070516 84 270 7.0 14.0 0.00 0.00 0.00 62 1017.0
20260903070016 84 270 6.0 13.0 0.00 0.00 0.00 63 1016.9
20260903065517 84 293 8.0 13.0 0.00 0.00 0.00 64 1016.9
20260903065017 84 270 6.0 15.0 0.00 0.00 0.00 65 1016.9
20260903064517 84 293 5.0 12.0 0.00 0.00 0.00 65 1017.0
20260903064016 83 293 5.0 10.0 0.00 0.00 0.00 64 1017.0
20260903063556 83 270 7.0 10.0 0.00 0.00 0.00 64 1017.1
20260903063016 83 270 8.0 12.0 0.00 0.00 0.00 65 1017.1
20260903062536 83 293 8.0 17.0 0.00 0.00 0.00 64 1017.1
20260903062016 83 315 7.0 15.0 0.00 0.00 0.00 64 1017.1
20260903061537 83 270 6.0 11.0 0.00 0.00 0.00 65 1017.2
20260903061016 83 293 5.0 11.0 0.00 0.00 0.00 66 1017.3
20260903060536 83 0 4.0 10.0 0.00 0.00 0.00 67 1017.2
20260903060016 83 0 4.0 8.0 0.00 0.00 0.00 67 1017.0
20260903055516 83 293 4.0 9.0 0.00 0.00 0.00 67 1017.2
20260903055016 82 0 3.0 14.0 0.00 0.00 0.00 67 1017.1
20260903054517 82 0 4.0 13.0 0.00 0.00 0.00 68 1017.1
20260903054036 82 293 3.0 9.0 0.00 0.00 0.00 68 1017.0
20260903053536 82 90 2.0 4.0 0.00 0.00 0.00 70 1017.0
20260903053016 81 0 3.0 9.0 0.00 0.00 0.00 70 1016.8
20260903052536 81 68 2.0 6.0 0.00 0.00 0.00 71 1016.9
20260903052016 81 338 4.0 10.0 0.00 0.00 0.00 71 1016.9
20260903051516 81 293 2.0 4.0 0.00 0.00 0.00 71 1016.9
20260903051016 80 338 5.0 10.0 0.00 0.00 0.00 71 1016.9
20260903050516 80 338 4.0 11.0 0.00 0.00 0.00 72 1016.8
20260903050016 80 338 4.0 8.0 0.00 0.00 0.00 71 1016.9
20260903045516 80 23 5.0 13.0 0.00 0.00 0.00 72 1016.6
20260903045016 80 270 4.0 11.0 0.00 0.00 0.00 71 1016.7
20260903044516 80 0 6.0 17.0 0.00 0.00 0.00 72 1016.5
20260903044016 80 270 3.0 8.0 0.00 0.00 0.00 71 1016.7
20260903043516 80 293 3.0 8.0 0.00 0.00 0.00 71 1016.6
20260903043019 81 315 3.0 6.0 0.00 0.00 0.00 71 1016.6
20260903042516 81 315 5.0 12.0 0.00 0.00 0.00 70 1016.6
20260903042016 81 0 5.0 11.0 0.00 0.00 0.00 70 1016.5
20260903041516 81 338 3.0 9.0 0.00 0.00 0.00 69 1016.6
20260903041016 81 0 6.0 14.0 0.00 0.00 0.00 70 1016.6
20260903040516 80 23 3.0 14.0 0.00 0.00 0.00 71 1016.7
20260903040036 81 293 3.0 9.0 0.00 0.00 0.00 70 1016.6
20260903035516 81 338 4.0 13.0 0.00 0.00 0.00 70 1016.5
20260903035016 81 293 4.0 9.0 0.00 0.00 0.00 69 1016.6
20260903034556 81 225 3.0 10.0 0.00 0.00 0.00 69 1016.3
20260903034016 81 338 3.0 8.0 0.00 0.00 0.00 69 1016.4
20260903033516 81 0 6.0 14.0 0.00 0.00 0.00 69 1016.5
20260903033016 81 23 5.0 12.0 0.00 0.00 0.00 69 1016.5
20260903032516 81 23 2.0 8.0 0.00 0.00 0.00 69 1016.5
20260903032016 81 315 4.0 10.0 0.00 0.00 0.00 69 1016.5
20260903031516 81 0 3.0 9.0 0.00 0.00 0.00 70 1016.4
20260903031016 81 0 4.0 10.0 0.00 0.00 0.00 70 1016.5
20260903030516 81 0 3.0 9.0 0.00 0.00 0.00 71 1016.6
20260903030016 81 293 5.0 13.0 0.00 0.00 0.00 70 1016.6
20260903025536 81 293 4.0 10.0 0.00 0.00 0.00 70 1016.7
20260903025059 81 293 5.0 10.0 0.00 0.00 0.00 70 1016.8
20260903024536 81 315 5.0 12.0 0.00 0.00 0.00 70 1016.8
20260903024016 81 338 3.0 5.0 0.00 0.00 0.00 71 1016.8
20260903023516 81 315 3.0 10.0 0.00 0.00 0.00 71 1016.9
20260903023016 81 338 4.0 8.0 0.00 0.00 0.00 71 1016.9
20260903022518 81 315 3.0 6.0 0.00 0.00 0.00 71 1016.9
20260903022017 81 315 2.0 4.0 0.00 0.00 0.00 71 1017.0
20260903021516 81 338 5.0 11.0 0.00 0.00 0.00 70 1017.0
20260903021016 81 338 4.0 8.0 0.00 0.00 0.00 70 1016.9
20260903020516 81 315 4.0 8.0 0.00 0.00 0.00 70 1017.0
20260903020015 81 0 2.0 5.0 0.00 0.00 0.00 71 1017.0
20260903015516 81 0 4.0 8.0 0.00 0.00 0.00 70 1017.2
20260903015036 81 315 2.0 5.0 0.00 0.00 0.00 70 1017.1
20260903014515 81 315 3.0 8.0 0.00 0.00 0.00 69 1017.1
20260903014038 81 0 3.0 5.0 0.00 0.00 0.00 69 1017.1
20260903013516 81 45 2.0 7.0 0.00 0.00 0.00 68 1017.2
20260903013036 81 315 3.0 11.0 0.00 0.00 0.00 67 1017.0
20260903012515 81 23 4.0 8.0 0.00 0.00 0.00 68 1017.0
20260903012015 81 23 3.0 9.0 0.00 0.00 0.00 69 1017.1
20260903011516 81 293 2.0 6.0 0.00 0.00 0.00 68 1017.1
20260903011017 81 23 1.0 3.0 0.00 0.00 0.00 69 1017.1
20260903010536 82 0 3.0 11.0 0.00 0.00 0.00 68 1017.1
20260903010015 82 0 5.0 12.0 0.00 0.00 0.00 68 1017.1
20260903005516 82 23 5.0 11.0 0.00 0.00 0.00 67 1017.1
20260903005016 82 225 6.0 20.0 0.00 0.00 0.00 67 1017.2
20260903004516 82 0 6.0 10.0 0.00 0.00 0.00 66 1017.2
20260903004016 82 338 5.0 12.0 0.00 0.00 0.00 66 1017.4
20260903003536 82 338 6.0 15.0 0.00 0.00 0.00 65 1017.2
20260903003016 82 338 6.0 13.0 0.00 0.00 0.00 67 1017.3
20260903002515 82 0 6.0 15.0 0.00 0.00 0.00 67 1017.2
20260903002015 82 315 2.0 11.0 0.00 0.00 0.00 64 1017.4
20260903001515 82 23 4.0 11.0 0.00 0.00 0.00 68 1017.4
20260903001016 82 0 3.0 9.0 0.00 0.00 0.00 66 1017.2
20260903000556 82 23 4.0 6.0 0.00 0.00 0.00 65 1017.3
20260903000016 82 135 1.0 3.0 0.00 0.00 0.00 65 1017.3